{"data":{"norad_id":60904,"epoch":"2026-05-25T02:59:27.181824Z","epoch_age_seconds":54520,"freshness":"FRESH","line1":"1 60904U 24154B   26145.12462016  .00001115  00000+0  14056-4 0  9992","line2":"2 60904  53.1587 114.1550 0000809  93.2872 266.8239 15.69703806100524","mean_motion":15.69703806,"eccentricity":8.09e-5,"inclination_deg":53.1587,"raan_deg":114.155,"arg_perigee_deg":93.2872,"mean_anomaly_deg":266.8239,"bstar":1.4056e-5,"rev_number":10052,"period_min":91.737052206651,"perigee_km":359.19938072377,"apogee_km":360.28956994648,"semimajor_km":6737.8814753351,"source":"CELESTRAK","updated_at":"2026-05-25T13:38:19.311985Z"}}